Time,TemperatureF,DewpointF,PressureIn,WindDirection,WindDirectionDegrees,WindSpeedMPH,WindSpeedGustMPH,Humidity,HourlyPrecipIn,Conditions,Clouds,dailyrainin,SoftwareType,DateUTC
2015-03-01 00:13:00,34.0,33.0,30.29,NE,35,0.0,6.0,96,0.01,,,0.11,,2015-03-01 06:13:00,
2015-03-01 00:23:00,34.0,33.0,30.29,NNE,27,2.0,6.0,96,0.01,,,0.11,,2015-03-01 06:23:00,
2015-03-01 00:42:00,34.0,33.0,30.29,NNE,24,3.0,8.0,96,0.00,,,0.11,,2015-03-01 06:42:00,
2015-03-01 00:53:00,34.0,33.0,30.29,NE,34,2.0,7.0,96,0.00,,,0.11,,2015-03-01 06:53:00,
2015-03-01 01:12:00,34.0,33.0,30.29,NNE,17,1.0,6.0,96,0.02,,,0.13,,2015-03-01 07:12:00,
2015-03-01 01:23:00,34.0,33.0,30.28,NNE,32,2.0,5.0,96,0.02,,,0.13,,2015-03-01 07:23:00,
2015-03-01 01:43:00,34.0,33.0,30.28,North,5,2.0,6.0,96,0.02,,,0.13,,2015-03-01 07:43:00,
2015-03-01 01:52:00,34.0,33.0,30.28,North,5,3.0,9.0,96,0.02,,,0.13,,2015-03-01 07:52:00,
2015-03-01 02:12:00,34.0,33.0,30.28,NE,51,2.0,8.0,96,0.00,,,0.13,,2015-03-01 08:12:00,
2015-03-01 02:22:00,34.0,33.0,30.28,NNE,15,4.0,10.0,96,0.00,,,0.13,,2015-03-01 08:22:00,
2015-03-01 02:42:00,34.0,33.0,30.27,NNE,14,3.0,10.0,96,0.00,,,0.13,,2015-03-01 08:42:00,
2015-03-01 02:52:00,34.0,33.0,30.27,North,9,1.0,8.0,96,0.00,,,0.13,,2015-03-01 08:52:00,
2015-03-01 03:12:00,34.0,33.0,30.27,North,5,1.0,9.0,96,0.00,,,0.13,,2015-03-01 09:12:00,
2015-03-01 03:22:00,34.0,33.0,30.27,NNE,20,2.0,10.0,96,0.00,,,0.13,,2015-03-01 09:22:00,
2015-03-01 03:43:00,34.0,33.0,30.27,NNE,26,4.0,8.0,96,0.00,,,0.13,,2015-03-01 09:43:00,
2015-03-01 03:53:00,34.0,33.0,30.26,NNE,22,2.0,9.0,96,0.00,,,0.13,,2015-03-01 09:53:00,
2015-03-01 04:13:00,34.0,33.0,30.26,NNE,19,2.0,8.0,96,0.00,,,0.13,,2015-03-01 10:13:00,
2015-03-01 04:23:00,34.0,33.0,30.26,NE,51,2.0,7.0,96,0.00,,,0.13,,2015-03-01 10:23:00,
2015-03-01 04:43:00,34.0,33.0,30.26,NNE,19,1.0,10.0,96,0.03,,,0.16,,2015-03-01 10:43:00,
2015-03-01 04:54:00,34.0,33.0,30.25,North,10,1.0,5.0,96,0.05,,,0.18,,2015-03-01 10:54:00,
2015-03-01 05:13:00,34.0,33.0,30.25,NNE,32,2.0,9.0,96,0.07,,,0.20,,2015-03-01 11:13:00,
2015-03-01 05:23:00,34.0,33.0,30.25,NE,39,2.0,8.0,96,0.09,,,0.22,,2015-03-01 11:23:00,
2015-03-01 05:43:00,34.0,33.0,30.26,NNE,26,2.0,8.0,96,0.06,,,0.22,,2015-03-01 11:43:00,
2015-03-01 05:53:00,34.0,33.0,30.26,NNE,12,3.0,6.0,96,0.04,,,0.22,,2015-03-01 11:53:00,
2015-03-01 06:12:00,35.0,34.0,30.27,NNE,17,1.0,8.0,96,0.02,,,0.22,,2015-03-01 12:12:00,
2015-03-01 06:22:00,35.0,34.0,30.27,NNE,29,0.0,6.0,96,0.01,,,0.23,,2015-03-01 12:22:00,
2015-03-01 06:42:00,35.0,34.0,30.27,NNE,31,2.0,10.0,96,0.01,,,0.23,,2015-03-01 12:42:00,
2015-03-01 06:53:00,35.0,34.0,30.27,NNE,12,2.0,8.0,96,0.01,,,0.23,,2015-03-01 12:53:00,
2015-03-01 07:13:00,35.0,34.0,30.28,NE,44,2.0,9.0,96,0.01,,,0.23,,2015-03-01 13:13:00,
2015-03-01 07:23:00,35.0,34.0,30.28,NNE,19,1.0,9.0,96,0.00,,,0.23,,2015-03-01 13:23:00,
2015-03-01 07:42:00,35.0,34.0,30.29,NNE,33,1.0,5.0,96,0.00,,,0.23,,2015-03-01 13:42:00,
2015-03-01 07:52:00,35.0,34.0,30.29,NE,41,3.0,9.0,96,0.00,,,0.23,,2015-03-01 13:52:00,
2015-03-01 08:12:00,35.0,34.0,30.29,NNE,24,2.0,7.0,96,0.00,,,0.23,,2015-03-01 14:12:00,
2015-03-01 08:23:00,35.0,34.0,30.30,NNE,17,2.0,9.0,96,0.00,,,0.23,,2015-03-01 14:23:00,
2015-03-01 08:32:00,35.0,34.0,30.30,NNE,17,2.0,9.0,96,0.00,,,0.23,,2015-03-01 14:32:00,
2015-03-01 08:42:00,35.0,34.0,30.30,NNE,17,2.0,9.0,96,0.00,,,0.23,,2015-03-01 14:42:00,
2015-03-01 08:52:00,36.0,35.0,30.31,North,9,2.0,6.0,96,0.00,,,0.23,,2015-03-01 14:52:00,
2015-03-01 09:12:00,36.0,35.0,30.31,NNE,29,1.0,9.0,96,0.00,,,0.23,,2015-03-01 15:12:00,
2015-03-01 09:22:00,36.0,35.0,30.32,NNE,19,4.0,10.0,96,0.00,,,0.23,,2015-03-01 15:22:00,
2015-03-01 09:44:00,36.0,35.0,30.32,NE,36,2.0,8.0,96,0.00,,,0.23,,2015-03-01 15:44:00,
2015-03-01 09:54:00,36.0,35.0,30.32,North,10,1.0,9.0,97,0.00,,,0.23,,2015-03-01 15:54:00,
2015-03-01 10:13:00,36.0,35.0,30.33,North,5,1.0,8.0,96,0.00,,,0.23,,2015-03-01 16:13:00,
2015-03-01 10:24:00,36.0,35.0,30.34,NNE,15,1.0,9.0,96,0.00,,,0.23,,2015-03-01 16:24:00,
2015-03-01 10:43:00,37.0,36.0,30.34,NE,43,2.0,8.0,97,0.00,,,0.23,,2015-03-01 16:43:00,
2015-03-01 10:53:00,37.0,36.0,30.34,NNE,14,0.0,5.0,97,0.00,,,0.23,,2015-03-01 16:53:00,
2015-03-01 11:13:00,37.0,36.0,30.34,NE,56,1.0,8.0,97,0.00,,,0.23,,2015-03-01 17:13:00,
2015-03-01 11:23:00,38.0,37.0,30.33,NNE,17,4.0,10.0,96,0.00,,,0.23,,2015-03-01 17:23:00,
2015-03-01 11:43:00,38.0,37.0,30.33,North,5,3.0,9.0,97,0.00,,,0.23,,2015-03-01 17:43:00,
2015-03-01 11:53:00,38.0,37.0,30.34,NNE,30,2.0,8.0,96,0.00,,,0.23,,2015-03-01 17:53:00,
2015-03-01 12:13:00,39.0,38.0,30.32,NNE,14,3.0,9.0,97,0.00,,,0.23,,2015-03-01 18:13:00,
2015-03-01 12:23:00,39.0,38.0,30.31,North,11,4.0,12.0,97,0.00,,,0.23,,2015-03-01 18:23:00,
2015-03-01 12:43:00,39.0,38.0,30.30,North,5,3.0,11.0,97,0.00,,,0.23,,2015-03-01 18:43:00,
2015-03-01 12:52:00,39.0,38.0,30.29,NNE,30,4.0,13.0,96,0.00,,,0.23,,2015-03-01 18:52:00,
2015-03-01 13:12:00,40.0,39.0,30.29,West,281,2.0,10.0,96,0.00,,,0.23,,2015-03-01 19:12:00,
2015-03-01 14:12:00,40.0,39.0,30.28,NNE,13,3.0,8.0,96,0.00,,,0.18,,2015-03-01 20:12:00,
2015-03-01 14:22:00,41.0,40.0,30.27,NE,42,0.0,7.0,96,0.00,,,0.17,,2015-03-01 20:22:00,
2015-03-01 14:42:00,41.0,40.0,30.26,NNE,15,2.0,9.0,96,0.00,,,0.17,,2015-03-01 20:42:00,
2015-03-01 14:52:00,41.0,40.0,30.25,NE,53,5.0,12.0,95,0.00,,,0.17,,2015-03-01 20:52:00,
2015-03-01 15:12:00,42.0,41.0,30.26,North,5,5.0,9.0,95,0.00,,,0.17,,2015-03-01 21:12:00,
2015-03-01 15:22:00,42.0,41.0,30.27,NE,42,1.0,8.0,95,0.00,,,0.17,,2015-03-01 21:22:00,
2015-03-01 15:44:00,42.0,40.0,30.27,NNE,18,2.0,10.0,94,0.00,,,0.17,,2015-03-01 21:44:00,
2015-03-01 15:53:00,42.0,40.0,30.26,NNE,30,2.0,9.0,94,0.00,,,0.17,,2015-03-01 21:53:00,
2015-03-01 16:13:00,42.0,40.0,30.26,NNE,19,2.0,9.0,94,0.00,,,0.17,,2015-03-01 22:13:00,
2015-03-01 16:23:00,42.0,41.0,30.25,NNE,28,3.0,11.0,95,0.00,,,0.17,,2015-03-01 22:23:00,
2015-03-01 16:43:00,42.0,41.0,30.26,ENE,62,2.0,10.0,95,0.00,,,0.17,,2015-03-01 22:43:00,
2015-03-01 16:53:00,42.0,41.0,30.26,NE,38,3.0,10.0,95,0.00,,,0.17,,2015-03-01 22:53:00,
2015-03-01 17:13:00,42.0,41.0,30.26,NE,56,5.0,11.0,95,0.00,,,0.17,,2015-03-01 23:13:00,
2015-03-01 17:23:00,42.0,41.0,30.26,NE,36,3.0,5.0,96,0.00,,,0.16,,2015-03-01 23:23:00,
2015-03-01 17:42:00,42.0,41.0,30.27,NNE,15,2.0,10.0,95,0.00,,,0.16,,2015-03-01 23:42:00,
2015-03-01 17:52:00,42.0,41.0,30.27,North,10,3.0,9.0,96,0.00,,,0.16,,2015-03-01 23:52:00,
2015-03-01 18:12:00,41.0,40.0,30.27,NNE,17,3.0,12.0,96,0.00,,,0.16,,2015-03-02 00:12:00,
2015-03-01 18:22:00,41.0,40.0,30.28,NNE,29,2.0,9.0,96,0.00,,,0.15,,2015-03-02 00:22:00,
2015-03-01 18:42:00,41.0,40.0,30.28,NNE,22,2.0,9.0,96,0.00,,,0.15,,2015-03-02 00:42:00,
2015-03-01 18:52:00,41.0,40.0,30.27,NNE,24,4.0,8.0,96,0.00,,,0.15,,2015-03-02 00:52:00,
2015-03-01 19:12:00,41.0,40.0,30.29,NNE,33,2.0,9.0,96,0.00,,,0.15,,2015-03-02 01:12:00,
2015-03-01 19:22:00,41.0,40.0,30.29,NE,38,1.0,6.0,96,0.00,,,0.15,,2015-03-02 01:22:00,
2015-03-01 19:43:00,41.0,40.0,30.29,NNE,24,4.0,9.0,96,0.01,,,0.16,,2015-03-02 01:43:00,